RH
52 47 45 46 48 48 47 46 44 43 41 39 36 34 32 31 33 35 36 37 38 37 36 36 35 32 31 32 31 32 32 33 32 31 30 28 25 24 24 26 28 29 30 30 31 29 24 24 25 24 23 22 21 20 21 21 20 19 19 19 18 18 18 19 18 18 17 17 17 17 17 16 15 15 17 22 26 21 17 18 21 23 23 24 20
52 48 44 45 48 48 48 46 43 42 40 39 36 34 32 31 33 35 36 37 38 37 36 36 36 34 32 33 32 32 32 33 33 31 30 30 28 28 29 29 29 30 32 33 35 35 30 27 25 24 24 23 22 20 19 19 18 18 19 18 18 17 18 19 19 18 17 17 18 18 18 16 16 16 16 17 19 18 16 17 18 18 20 20 18
52 49 45 45 48 49 47 45 42 41 40 39 36 34 33 32 33 35 36 38 38 36 36 36 35 35 34 33 33 32 31 31 32 32 30 30 30 30 32 32 31 30 33 34 36 38 36 32 27 24 24 24 23 20 19 18 17 17 18 17 17 18 18 19 19 19 18 18 20 21 19 16 15 16 16 16 17 16 16 16 17 18 19 19 17
52 49 47 48 49 49 47 45 42 41 41 39 37 35 35 35 35 36 37 39 38 37 38 36 36 35 35 34 33 33 32 31 31 32 31 30 30 30 31 34 34 31 32 35 38 39 39 38 32 26 23 24 23 21 19 18 17 17 18 18 18 19 20 20 21 20 20 20 21 22 21 20 16 15 16 16 16 16 15 15 16 17 17 17 16
52 52 51 50 49 49 48 45 43 42 42 40 38 38 39 39 37 37 38 40 40 39 39 38 37 36 35 34 33 33 33 32 31 32 32 30 30 30 31 33 35 34 33 36 39 41 41 42 37 30 25 23 23 21 20 18 18 17 17 19 20 20 21 22 23 23 23 22 22 21 23 26 21 15 15 16 16 15 15 15 15 16 16 16 16
54 56 54 51 50 50 49 47 44 43 42 41 40 40 41 40 38 38 39 41 42 42 40 39 38 37 36 34 33 34 33 33 32 32 32 30 28 28 30 32 35 35 35 36 40 41 42 43 40 36 32 28 25 22 20 20 18 17 18 20 21 22 24 26 27 27 27 26 26 24 24 30 27 18 15 15 16 16 16 15 15 15 15 16 15
56 59 56 52 52 53 52 48 45 44 43 42 42 42 41 40 38 38 39 41 42 41 40 39 38 37 36 34 34 35 34 33 34 33 32 30 26 25 27 30 34 34 34 36 40 42 42 42 42 40 37 34 31 26 21 20 20 18 19 22 23 25 27 29 31 33 35 35 35 31 29 33 29 21 16 15 16 16 16 16 15 15 15 16 15
60 63 58 55 56 56 52 48 46 44 43 44 43 42 40 40 38 37 38 41 41 39 38 37 38 37 35 35 35 35 35 34 35 35 33 29 24 21 22 26 30 32 33 34 37 40 41 42 43 41 38 37 36 32 24 21 20 19 21 23 25 28 30 33 35 38 40 40 40 35 33 36 30 22 18 16 16 16 17 17 16 15 15 15 15
67 65 59 58 59 57 52 49 46 45 44 44 43 42 41 40 39 38 38 39 38 37 36 36 37 36 35 35 36 36 36 35 36 36 33 29 24 19 20 23 27 31 33 33 33 36 39 42 43 40 37 37 36 33 27 23 21 20 22 24 27 31 33 35 37 38 39 39 39 36 37 37 30 24 19 16 17 17 17 17 17 16 16 15 15
69 63 57 58 59 56 51 49 46 44 45 43 42 42 43 41 40 39 38 37 36 35 35 36 36 35 35 36 36 37 37 37 38 39 38 34 28 22 22 25 28 32 36 37 36 37 40 43 43 42 38 36 35 33 28 24 23 21 22 26 29 33 35 36 37 37 37 37 38 38 38 36 31 28 21 17 16 17 17 18 17 17 16 15 15
63 57 55 55 56 54 51 50 47 45 45 43 42 42 43 42 40 38 37 35 34 34 35 35 35 35 35 35 36 36 37 38 40 41 43 41 34 26 23 27 30 33 36 38 38 37 38 40 42 44 43 37 34 34 29 24 24 23 22 27 30 34 35 36 37 36 35 37 39 38 37 36 33 30 24 18 16 16 17 18 18 17 17 16 16
62 57 54 54 54 54 52 52 49 45 44 43 42 42 43 43 41 38 36 34 34 35 35 35 35 35 34 35 35 35 37 38 40 42 44 44 40 32 25 27 30 33 34 35 36 35 32 34 39 42 44 42 35 32 30 24 24 24 22 26 30 33 35 36 36 35 36 38 39 37 36 37 33 31 27 19 16 17 17 18 18 18 18 17 17
66 59 55 54 54 54 54 53 50 46 44 44 43 43 43 43 42 38 36 35 35 36 36 36 36 35 34 34 33 34 37 37 40 43 45 44 43 38 31 30 30 31 32 31 33 34 33 30 33 38 44 45 38 33 30 24 23 24 22 24 30 33 35 36 35 34 38 40 39 37 37 38 36 33 27 18 16 16 17 18 19 19 19 18 18
69 63 58 54 54 54 54 52 50 47 45 45 45 44 43 44 42 40 39 37 37 38 39 39 37 35 34 33 32 33 36 37 39 42 45 44 45 44 40 36 33 32 32 30 30 32 33 31 28 32 38 41 39 35 32 27 23 23 21 23 29 33 35 36 34 34 39 41 39 38 39 39 37 32 23 18 18 17 17 17 18 20 19 19 19
71 65 59 55 56 56 53 52 52 50 49 47 46 44 43 44 44 43 41 39 39 41 42 41 39 36 33 32 32 34 36 38 38 40 43 44 45 47 46 42 39 37 35 33 32 31 31 32 30 26 28 34 37 35 33 30 25 24 22 23 29 33 34 35 35 35 39 40 39 39 40 38 35 29 21 19 18 17 17 17 19 20 20 20 19
69 64 59 58 60 59 56 56 55 54 53 51 48 47 47 47 47 46 42 40 40 42 44 43 39 37 35 34 34 35 36 38 37 38 40 43 45 47 47 47 45 44 41 38 37 33 30 31 31 26 23 27 32 32 32 30 27 26 24 25 31 33 34 35 34 35 38 39 39 39 38 36 32 27 21 19 19 17 18 18 18 19 20 20 19
70 65 60 63 64 61 59 58 57 57 57 55 53 52 52 51 49 46 43 42 41 42 45 43 41 39 37 37 37 36 36 37 38 39 39 41 44 45 44 43 45 45 45 44 41 38 33 32 32 30 28 24 26 29 30 30 29 29 29 31 33 34 35 35 34 34 38 39 40 40 38 36 30 23 21 20 19 18 18 18 18 19 20 20 20
74 67 61 63 62 60 56 55 56 57 58 57 57 56 54 52 49 47 45 44 42 42 42 42 43 42 41 40 38 36 35 37 39 41 42 42 43 44 42 41 41 40 41 42 43 42 40 36 34 33 30 26 24 26 29 30 30 29 34 38 37 35 35 36 34 34 37 38 41 40 38 37 30 23 21 20 19 19 19 19 18 19 19 19 19
71 65 61 61 58 56 53 52 54 55 58 58 58 57 56 53 50 47 45 43 42 41 42 43 45 46 45 41 38 37 37 37 39 41 44 46 46 44 41 40 39 38 37 38 41 42 42 40 37 34 30 29 27 25 28 32 30 29 37 44 40 36 35 36 34 33 34 36 39 40 37 35 32 26 22 21 20 20 19 19 19 18 18 18 19
67 63 60 59 55 54 53 53 54 53 54 56 57 57 56 53 49 46 44 43 44 44 44 46 48 50 48 43 41 42 39 38 40 44 47 51 52 47 43 41 39 39 38 38 40 40 41 42 39 36 33 31 30 28 29 33 31 29 38 45 42 39 36 35 34 33 34 34 37 40 36 33 32 27 23 22 20 20 20 19 19 18 18 18 18
66 65 61 57 54 54 55 56 55 54 54 55 55 54 56 53 48 46 45 45 47 47 46 48 51 51 49 45 45 46 43 43 46 50 53 56 57 55 51 47 41 40 40 41 43 43 42 42 38 35 35 32 30 32 31 33 34 31 39 45 43 43 39 35 35 35 35 34 37 40 36 31 31 28 23 22 21 20 20 19 19 18 18 18 18
67 66 61 57 57 57 57 56 56 56 56 56 54 52 53 52 50 50 49 46 47 48 48 51 53 53 52 49 47 48 49 50 51 54 57 58 60 61 60 56 49 46 46 47 48 48 43 38 34 32 36 34 30 36 37 34 35 33 38 43 44 44 42 39 37 36 35 34 36 39 38 33 29 27 24 23 21 21 20 20 19 18 18 18 17
67 63 60 57 57 57 56 57 57 56 57 56 53 52 50 49 51 51 50 50 52 52 53 53 53 53 54 53 52 53 53 54 54 56 59 59 61 63 65 63 57 53 53 54 53 52 45 34 31 32 36 35 32 41 47 43 39 35 36 38 39 40 42 42 38 36 36 35 36 38 40 36 30 27 24 24 23 21 21 21 19 18 18 17 17
68 62 60 58 57 56 55 56 55 55 57 56 54 53 50 49 50 51 51 53 55 56 56 54 53 54 54 55 56 59 59 57 57 60 63 64 65 65 66 66 63 61 60 60 59 56 46 33 30 33 35 35 37 46 52 52 46 41 40 39 37 37 42 43 39 37 38 38 38 39 40 37 30 26 25 25 24 23 21 21 20 18 18 18 17
72 64 62 61 60 58 58 57 56 56 56 56 56 55 52 50 52 54 55 55 55 58 59 57 56 57 56 56 58 60 63 62 62 64 64 64 66 65 65 66 67 67 65 63 64 62 55 43 36 38 41 43 47 51 52 54 51 48 47 43 40 40 43 45 39 38 39 40 40 39 38 33 29 27 27 26 25 23 22 22 21 19 19 18 17
75 68 64 62 61 61 62 60 59 56 53 53 54 55 54 54 55 57 58 56 57 60 61 59 58 58 57 57 57 59 64 65 66 67 65 64 65 63 61 62 64 67 66 65 65 65 65 60 50 46 49 53 55 56 54 52 51 51 51 46 42 41 43 46 42 37 38 40 41 40 36 30 29 28 27 27 26 24 23 22 21 20 20 19 18
76 71 65 61 60 63 63 58 55 53 51 52 52 53 53 53 53 55 57 56 56 60 61 60 59 59 58 58 59 61 64 66 68 68 66 66 67 63 60 59 60 63 65 68 69 68 70 70 65 57 53 54 55 56 55 52 49 50 51 50 46 45 45 45 43 38 36 38 39 39 35 29 28 29 28 27 26 25 25 23 22 21 20 20 18
77 73 66 61 59 61 59 54 52 50 49 50 50 50 48 46 45 46 50 51 51 53 57 59 59 60 60 61 63 62 64 67 69 70 68 69 69 64 61 60 60 61 61 66 69 70 73 73 70 63 54 53 52 51 51 50 49 47 48 48 47 46 46 45 42 38 36 36 37 37 34 30 27 27 28 27 26 26 25 24 23 22 21 20 19
76 70 65 62 61 62 58 53 51 48 46 43 42 43 41 39 39 38 40 42 43 44 50 56 59 61 62 63 64 63 65 68 70 73 72 70 70 65 62 61 59 58 59 64 68 70 72 72 69 62 55 53 51 48 45 45 45 44 43 44 46 47 47 46 44 39 37 37 36 35 34 33 30 28 28 27 27 27 26 25 24 22 22 20 19
72 66 64 61 61 62 57 51 47 43 40 38 37 38 35 34 34 33 35 38 40 41 46 54 60 61 63 66 66 63 64 67 70 73 72 69 67 62 58 57 55 53 54 59 65 67 67 67 65 60 55 52 50 48 45 44 45 44 42 41 45 48 48 48 46 41 38 39 38 34 33 33 31 29 28 28 27 26 26 26 24 23 22 21 21
67 62 61 57 57 59 54 49 44 39 36 35 35 35 32 31 30 30 32 35 37 40 42 50 58 61 65 70 68 64 66 67 67 68 68 66 62 57 54 53 53 51 49 52 57 61 62 62 61 61 59 54 51 50 48 48 50 48 44 41 41 46 48 47 47 45 41 41 39 35 35 35 32 30 30 31 29 28 27 26 26 25 24 23 22
62 59 57 53 52 52 48 44 41 36 33 32 31 30 29 30 31 32 32 32 34 37 41 48 54 59 63 67 66 64 66 64 62 64 65 65 61 55 51 49 49 49 47 50 55 57 58 59 59 62 64 61 57 56 54 54 55 52 48 44 42 44 48 47 46 46 44 42 39 37 39 38 36 34 34 34 34 32 30 28 27 27 26 26 24
58 58 57 53 47 45 43 39 35 32 30 29 28 27 27 29 30 31 32 32 35 38 42 47 52 55 58 63 65 65 65 63 61 61 60 61 57 49 46 45 45 45 44 48 53 56 57 58 59 62 65 64 60 59 61 63 61 56 52 51 51 50 52 51 48 47 45 42 37 37 40 40 38 37 36 37 37 37 36 32 30 29 29 28 27
53 52 50 50 46 45 44 38 34 31 30 29 29 28 27 28 27 28 31 32 36 39 43 48 51 53 55 59 62 62 61 62 62 59 56 56 50 41 40 41 42 43 42 44 49 54 57 59 60 62 64 62 60 62 63 66 66 61 57 59 60 57 56 57 53 48 45 42 37 36 40 41 40 39 39 39 40 42 42 40 36 35 35 32 30
49 45 42 43 43 42 42 37 33 32 31 29 29 29 27 28 27 28 30 31 34 38 42 47 49 51 52 55 56 56 57 61 65 63 59 56 46 41 42 41 42 44 44 45 49 55 59 60 60 62 62 59 59 64 65 66 70 67 63 65 67 64 62 62 60 53 47 43 39 37 39 40 41 41 41 42 42 43 43 43 42 40 40 39 37
45 43 39 38 38 37 37 32 28 27 29 27 28 30 29 28 28 28 28 29 33 36 39 44 47 48 51 53 52 53 57 61 64 65 61 55 47 45 45 43 44 46 46 46 48 53 56 57 57 58 61 59 58 62 63 62 65 66 66 66 69 69 65 63 64 61 54 49 45 42 40 40 40 41 42 43 43 43 42 42 42 42 41 42 41
42 41 39 38 36 33 30 27 23 22 23 23 26 32 33 32 30 29 27 28 30 30 35 40 43 46 49 51 49 50 57 59 59 61 57 49 45 44 43 42 45 47 47 46 46 49 52 52 52 53 58 61 61 61 60 59 60 60 63 65 67 68 67 64 64 65 61 56 51 48 45 42 40 41 43 44 45 45 44 43 43 42 40 40 40
42 40 37 34 32 29 26 24 21 20 20 22 25 30 32 31 31 32 30 30 30 28 31 35 37 41 43 44 45 47 54 57 59 60 54 45 44 43 42 43 45 46 45 44 45 46 47 48 49 51 57 62 64 63 61 61 60 60 63 67 68 70 69 66 64 65 66 63 59 56 53 48 44 42 43 45 47 48 48 46 45 45 43 41 40
41 38 35 32 29 27 25 23 21 19 21 23 25 29 31 30 31 32 30 28 28 27 27 28 30 36 40 43 45 47 51 53 55 56 51 46 46 45 44 45 44 44 44 43 44 45 46 47 48 50 54 60 65 66 66 64 62 64 66 68 69 71 71 69 67 65 65 67 68 66 63 59 53 48 45 46 47 49 50 49 47 46 46 45 44
40 36 35 33 29 27 24 22 21 20 22 25 27 31 33 33 32 32 30 27 26 27 27 26 25 29 35 40 44 46 48 49 49 49 48 46 45 44 44 44 43 43 46 46 46 47 48 48 48 49 52 59 64 67 69 68 66 67 68 68 69 70 70 68 64 62 61 63 66 69 69 68 65 60 54 52 51 52 52 52 51 49 48 48 49
40 36 35 35 30 27 25 23 21 21 24 27 30 35 36 36 35 35 33 28 23 24 25 26 25 25 29 32 33 36 39 40 40 40 40 40 40 40 39 38 38 40 44 49 48 50 52 51 50 50 53 59 63 64 66 68 67 66 67 69 72 73 71 66 62 59 59 59 62 66 68 68 67 67 65 62 60 57 55 54 52 52 50 48 47
41 37 35 34 30 27 26 25 23 23 26 30 34 38 37 37 37 36 35 30 25 24 25 26 25 23 24 24 23 26 27 28 31 33 35 35 35 37 37 33 33 34 37 43 46 48 54 56 53 53 55 60 62 63 64 67 67 64 63 66 74 79 74 66 63 62 62 63 65 67 71 73 73 72 74 73 69 64 61 58 53 52 54 52 49
43 39 35 32 30 29 29 28 26 25 29 33 37 40 39 39 39 37 35 32 29 27 24 20 18 16 17 20 22 24 24 24 29 33 34 32 30 32 34 32 31 32 33 37 41 46 52 54 53 54 58 61 63 63 64 66 64 62 63 65 71 75 69 62 59 58 60 63 67 71 75 80 81 82 82 81 80 74 69 66 60 54 53 54 53
45 42 38 34 33 32 32 33 31 28 31 35 39 41 41 41 42 40 37 35 31 28 21 16 13 12 14 22 27 27 26 26 28 30 29 28 27 27 29 30 30 29 30 33 38 44 48 50 51 54 59 64 65 65 66 66 64 62 65 66 65 64 59 55 55 55 55 57 60 64 67 73 79 84 85 85 86 82 75 71 68 59 54 54 53
47 45 42 40 40 38 37 38 37 32 33 37 40 41 41 42 44 44 42 37 30 24 18 15 15 13 14 21 26 28 28 28 27 27 27 28 28 27 26 28 28 27 28 29 31 36 40 44 47 49 54 60 64 66 67 67 65 63 64 64 60 56 52 49 50 53 52 51 51 52 57 66 74 81 85 87 88 87 80 76 75 68 61 58 54
47 48 47 45 45 45 45 45 43 38 37 38 38 39 40 41 44 44 43 38 31 23 16 13 15 14 14 17 22 26 26 25 25 24 27 28 28 28 28 27 26 25 26 26 26 28 31 34 36 39 43 48 53 57 58 59 60 59 60 59 55 51 49 47 47 50 51 50 49 50 55 64 72 79 84 86 88 89 86 81 81 78 68 62 60
47 49 49 47 46 49 51 52 50 44 41 42 39 37 39 39 41 42 40 35 30 24 17 14 15 14 13 14 16 20 21 22 23 23 25 27 27 29 29 28 28 26 25 25 23 25 27 27 28 31 33 35 38 43 47 48 51 53 53 53 51 48 46 45 45 47 49 49 48 49 55 65 75 82 85 86 87 90 89 85 84 84 77 69 65
47 48 48 46 45 49 54 58 57 51 46 47 43 37 37 37 39 40 40 36 29 24 21 17 15 13 12 13 13 15 16 17 19 21 23 26 27 27 26 26 28 27 26 26 23 23 26 26 26 26 26 27 29 34 38 41 43 45 45 46 46 45 45 45 45 47 47 49 49 49 56 68 80 83 81 80 81 83 86 88 88 86 81 75 69
47 47 48 48 48 49 53 58 60 59 54 54 51 42 37 37 39 42 43 39 31 27 26 20 15 13 11 12 11 12 13 12 13 15 18 24 26 25 24 22 23 26 26 25 23 25 26 25 25 25 24 24 25 28 31 33 35 38 40 41 40 41 43 44 46 46 45 47 51 56 61 69 76 74 65 60 59 61 66 77 86 87 81 77 74
49 48 48 50 52 51 52 54 59 63 60 59 60 53 43 39 41 44 44 40 34 30 28 22 18 14 11 12 12 11 12 11 11 11 13 18 22 22 22 19 16 17 19 17 19 23 26 26 25 23 24 24 24 25 26 27 29 29 30 32 34 35 39 42 44 44 43 43 47 54 59 60 59 56 50 46 44 40 39 50 67 79 80 77 74
50 49 45 46 50 50 51 52 58 67 69 66 65 59 52 46 43 44 42 38 33 29 26 24 21 15 11 12 12 12 12 11 11 11 11 13 15 17 16 15 12 11 11 11 12 15 17 20 20 19 22 24 24 24 22 21 22 22 23 24 25 28 30 32 36 37 38 38 38 40 40 38 38 42 42 39 36 33 30 34 45 60 72 78 78